Weather History for Mombasa, Kenya

Change the Weather History Date:

Sunday, October 7, 2012

  Actual Average Record
Temperature  
Mean Temperature 81 °F -  
Max Temperature 88 °F 87 °F - ()
Min Temperature 74 °F 70 °F - ()
Cooling Degree Days 16    
Growing Degree Days 31 (Base 50)    
Moisture  
Dew Point 71 °F    
Average Humidity 74    
Maximum Humidity 94    
Minimum Humidity 52    
Precipitation  
Precipitation 0.00 in 0.14 in - ()
Sea Level Pressure  
Sea Level Pressure 29.96 in    
Wind  
Wind Speed 6 mph ()    
Max Wind Speed 18 mph    
Max Gust Speed -    
Visibility 8.1 miles    
Events Rain    
T = Trace of Precipitation, MM = Missing Value Source: Averaged Metar Reports

Daily Weather History Graph

Daily Weather History Graph

Search for Another Location

Airport:

Trip Planner

Search our weather history database for the weather conditions in past years. The results will help you decide how hot, cold, wet, or windy it might be!

Date:

Astronomy

Oct. 07, 2012 Rise Set
Actual Time 6:04 AM EAT 6:14 PM EAT
Civil Twilight 5:43 AM EAT 6:35 PM EAT
Nautical Twilight 5:19 AM EAT 6:59 PM EAT
Astronomical Twilight 4:55 AM EAT 7:23 PM EAT
Moon No Moon Rise 11:25 AM EAT (10/7)
Length of Visible Light 12h 51m
Length of Day
12h 09m
Waning Gibbous, 59% of the Moon is Illuminated
Oct 7
Waning Gibbous
Oct 8
Last Quarter
Oct 15
New
Oct 22
First Quarter
Oct 29
Full

Hourly Weather History & Observations

Time (EAT) Temp. Heat Index Dew Point Humidity Pressure Visibility Wind Dir Wind Speed Gust Speed Precip Events Conditions
12:00 AM 77.0 °F - 71.6 °F 83% 29.98 in 6.2 mi SSE 4.6 mph - N/A   Partly Cloudy
1:00 AM 77.0 °F - 71.6 °F 83% 29.95 in 6.2 mi South 5.8 mph - N/A   Partly Cloudy
2:00 AM 77.0 °F - 71.6 °F 83% 29.95 in 6.2 mi South 4.6 mph - N/A   Partly Cloudy
3:00 AM 77 °F - 72 °F 79% 29.94 in 19 mi SSW 4.6 mph - -   Scattered Clouds
3:00 AM 77.0 °F - 71.6 °F 83% 29.95 in 6.2 mi SSW 4.6 mph - N/A   Partly Cloudy
4:00 AM 77.0 °F - 71.6 °F 83% 29.95 in 6.2 mi WSW 4.6 mph - N/A   Partly Cloudy
5:00 AM 75.2 °F - 71.6 °F 89% 29.95 in 6.2 mi SW 5.8 mph - N/A   Scattered Clouds
6:00 AM 75.2 °F - 71.6 °F 89% 29.98 in 6.2 mi WSW 4.6 mph - N/A   Scattered Clouds
7:00 AM 75.2 °F - 73.4 °F 94% 30.01 in 6.2 mi WSW 4.6 mph - N/A   Scattered Clouds
8:00 AM 77.0 °F - 73.4 °F 89% 30.01 in 6.2 mi SW 8.1 mph - N/A Rain Light Rain Showers
9:00 AM 81 °F - 73 °F 70% 30.02 in 19 mi SSE 5.8 mph - -   Partly Cloudy
9:00 AM 80.6 °F 85.4 °F 73.4 °F 79% 30.01 in 6.2 mi SSE 5.8 mph - N/A   Scattered Clouds
10:00 AM 84.2 °F 88.4 °F 69.8 °F 62% 30.01 in 6.2 mi South 8.1 mph - N/A   Scattered Clouds
11:00 AM 84.2 °F 88.4 °F 69.8 °F 62% 29.98 in 6.2 mi SW 6.9 mph - N/A   Scattered Clouds
12:00 PM 87.8 °F 91.4 °F 68.0 °F 52% 29.98 in 6.2 mi SE 10.4 mph - N/A   Partly Cloudy
1:00 PM 87.8 °F 92.6 °F 69.8 °F 55% 29.95 in 6.2 mi SE 12.7 mph - N/A   Scattered Clouds
2:00 PM 84.2 °F 88.4 °F 69.8 °F 62% 29.92 in 6.2 mi SSE 15.0 mph - N/A   Mostly Cloudy
3:00 PM 85 °F - 70 °F 53% 29.91 in 19 mi SE 18.4 mph - -   Scattered Clouds
3:00 PM 86.0 °F 90.4 °F 69.8 °F 58% 29.92 in 6.2 mi SE 18.4 mph - N/A   Partly Cloudy
4:00 PM 84.2 °F 89.6 °F 71.6 °F 66% 29.92 in 6.2 mi SSE 8.1 mph - N/A   Scattered Clouds
5:00 PM 80.6 °F 84.6 °F 71.6 °F 74% 29.92 in 6.2 mi SSE 15.0 mph - N/A   Mostly Cloudy
6:00 PM 80.6 °F 83.9 °F 69.8 °F 70% 29.92 in 6.2 mi SSE 6.9 mph - N/A   Mostly Cloudy
7:00 PM 80.6 °F 83.2 °F 68.0 °F 65% 29.95 in 6.2 mi SSE 8.1 mph - N/A   Partly Cloudy
8:00 PM 78.8 °F - 71.6 °F 78% 29.95 in 6.2 mi SSE 6.9 mph - N/A   Partly Cloudy
9:00 PM 78 °F - 73 °F 80% 29.96 in 19 mi SSE 5.8 mph - -   Scattered Clouds
9:00 PM 78.8 °F - 73.4 °F 83% 29.95 in 6.2 mi SSE 5.8 mph - N/A   Partly Cloudy
10:00 PM 78.8 °F - 73.4 °F 83% 29.98 in 6.2 mi SSE 5.8 mph - N/A   Partly Cloudy